Simultaneous Nadir Overpasses (SNOs) Predictions

Prediction of SNOs between METOP-A and NOAA-19 Satellite Orbit:

Table of predicted SNOs for the next 14.0 days since TLE Epoch: 7/4/2015
Index Date (METOP-A) Time (METOP-A) Lat,Lon (METOP-A) SZA (METOP-A ) Date (NOAA-19) Time (NOAA-19) Lat,Lon (NOAA-19) SZA (NOAA-19 ) Distance(km) Time Diff (sec)
1 07/07/2015 10:47:15 75.70, 17.09 53.05 07/07/2015 10:46:10 75.70, 13.63 53.12 95.15 65
2 07/07/2015 11:38:09 -75.12,-177.35 127.51 07/07/2015 11:36:55 -75.12,-177.28 127.50 2.02 74
3 07/07/2015 12:28:49 75.11, -10.05 52.49 07/07/2015 12:28:00 75.11, -10.02 52.50 1.01 49
4 07/07/2015 13:19:31 -75.10, 157.24 127.52 07/07/2015 13:18:57 -75.10, 157.30 127.52 1.60 34
5 07/07/2015 14:10:11 75.09, -35.46 52.47 07/07/2015 14:10:02 75.09, -35.44 52.48 0.45 9
6 07/07/2015 15:00:53 -75.07, 131.84 127.54 07/07/2015 15:00:59 -75.07, 131.88 127.54 1.38 6
7 07/07/2015 15:51:33 75.06, -60.86 52.46 07/07/2015 15:52:04 75.06, -60.86 52.45 0.41 31
8 07/07/2015 16:42:15 -75.05, 106.43 127.55 07/07/2015 16:43:01 -75.04, 106.46 127.57 1.47 46
9 07/07/2015 17:32:55 75.04, -86.27 52.44 07/07/2015 17:34:06 75.03, -86.29 52.43 0.98 71
10 07/07/2015 18:23:47 -74.54, 79.70 128.01 07/07/2015 18:24:54 -74.59, 82.26 128.03 75.84 67
11 07/17/2015 22:29:35 75.58,-158.89 54.40 07/17/2015 22:28:27 75.57,-161.37 54.46 68.69 68
12 07/17/2015 23:20:26 -75.16, 7.16 125.99 07/17/2015 23:19:18 -75.15, 7.24 126.00 2.67 68
13 07/18/2015 00:11:06 75.13, 174.41
